Torna al catalogo

STARLINK-32709

AttivoComunicazioniVLEO
NORAD 62439·PAYLOAD·🇺🇸 United States

Lanciato Dec 29, 2024 da Vandenberg Space Force Base

Loading…

Prossimi Passaggi (prossime 24 ore)

TLE

AggiornatoSource: CelesTrak SupGP

Epoca: Sep 15, 2026, 03:05 UTC

1 62439C 24251H   26258.12895833 -.00013303  00000+0 -39302-3 0  2589
2 62439  53.1578 172.7206 0001355  81.2915 146.2930 15.34398263    10

Traccia STARLINK-32709 in tempo reale con AllMySat

Download on the App Store